,,PA_Meas_PMT16A,,PR_Meas_QMR101_102,,RH_Meas_QMH101,,SR_Meas_QMS101,,TA_Meas_QMH101,,GenWind,,GenWind,
time,status,PA,status,PR,status,RH,status,SR,status,TA,status,DirAvg,status,SpdAvg,
2013-06-18, 00:00:04,VALID,915.544,VALID,0,VALID,95.9864,VALID,0,VALID,20.3659,VALID,14,VALID,0,
2013-06-18, 00:01:04,VALID,915.576,VALID,0,VALID,95.9788,VALID,0,VALID,20.3869,VALID,15,VALID,0,
2013-06-18, 00:02:04,VALID,915.574,VALID,0,VALID,95.9941,VALID,0,VALID,20.3674,VALID,27,VALID,0,
2013-06-18, 00:03:04,VALID,915.567,VALID,0,VALID,96.0017,VALID,0,VALID,20.3464,VALID,354,VALID,0,
2013-06-18, 00:04:04,VALID,915.567,VALID,0,VALID,96.0245,VALID,0,VALID,20.3464,VALID,354,VALID,0,
2013-06-18, 00:05:04,VALID,915.521,VALID,0,VALID,96.055,VALID,0,VALID,20.3464,VALID,221,VALID,0,
2013-06-18, 00:06:04,VALID,915.522,VALID,0,VALID,96.0627,VALID,0,VALID,20.3659,VALID,265,VALID,0,
2013-06-18, 00:07:04,VALID,915.534,VALID,0,VALID,96.0779,VALID,0,VALID,20.3659,VALID,14,VALID,0,
2013-06-18, 00:08:04,VALID,915.477,VALID,0,VALID,96.1008,VALID,0,VALID,20.3659,VALID,341,VALID,0,
2013-06-18, 00:09:04,VALID,915.467,VALID,0,VALID,96.1236,VALID,0,VALID,20.3869,VALID,343,VALID,0,
2013-06-18, 00:10:04,VALID,915.44,VALID,0,VALID,96.0932,VALID,0,VALID,20.3659,VALID,42,VALID,0,
2013-06-18, 00:11:04,VALID,915.417,VALID,0,VALID,96.1236,VALID,0.107441,VALID,20.3854,VALID,37,VALID,0,
2013-06-18, 00:12:04,VALID,915.387,VALID,0,VALID,96.1313,VALID,0,VALID,20.4064,VALID,32,VALID,0,
2013-06-18, 00:13:04,VALID,915.343,VALID,0,VALID,96.1313,VALID,0,VALID,20.3854,VALID,39,VALID,0,
2013-06-18, 00:14:04,VALID,915.291,VALID,0,VALID,96.1465,VALID,0,VALID,20.3854,VALID,98,VALID,0,
2013-06-18, 00:15:04,VALID,915.293,VALID,0,VALID,96.1618,VALID,0,VALID,20.3659,VALID,149,VALID,0,
2013-06-18, 00:16:04,VALID,915.298,VALID,0,VALID,96.1846,VALID,0,VALID,20.3674,VALID,147,VALID,0,
2013-06-18, 00:17:04,VALID,915.336,VALID,0,VALID,96.1618,VALID,0,VALID,20.3464,VALID,190,VALID,0,
2013-06-18, 00:18:04,VALID,915.285,VALID,0,VALID,96.1846,VALID,0,VALID,20.3253,VALID,169,VALID,0,
2013-06-18, 00:19:04,VALID,915.24,VALID,0,VALID,96.1846,VALID,0,VALID,20.3674,VALID,128,VALID,0,
2013-06-18, 00:20:04,VALID,915.215,VALID,0,VALID,96.2075,VALID,0,VALID,20.3659,VALID,176,VALID,0,
2013-06-18, 00:21:04,VALID,915.267,VALID,0,VALID,96.177,VALID,0,VALID,20.3674,VALID,190,VALID,0,
2013-06-18, 00:22:04,VALID,915.305,VALID,0,VALID,96.1923,VALID,0,VALID,20.3869,VALID,190,VALID,0,
2013-06-18, 00:23:04,VALID,915.34,VALID,0,VALID,96.1694,VALID,0,VALID,20.3659,VALID,237,VALID,0,
2013-06-18, 00:24:04,VALID,915.303,VALID,0,VALID,96.1465,VALID,0,VALID,20.3659,VALID,72,VALID,0,
2013-06-18, 00:25:04,VALID,915.291,VALID,0,VALID,96.1313,VALID,0.107441,VALID,20.3659,VALID,86,VALID,0,
2013-06-18, 00:26:04,VALID,915.288,VALID,0,VALID,96.1084,VALID,0,VALID,20.3659,VALID,111,VALID,0,
2013-06-18, 00:27:04,VALID,915.268,VALID,0,VALID,96.0932,VALID,0,VALID,20.3448,VALID,34,VALID,0,
2013-06-18, 00:28:04,VALID,915.263,VALID,0,VALID,96.0779,VALID,0,VALID,20.3869,VALID,190,VALID,0,
2013-06-18, 00:29:04,VALID,915.314,VALID,0,VALID,96.0703,VALID,0,VALID,20.3869,VALID,206,VALID,0,
2013-06-18, 00:30:04,VALID,915.343,VALID,0,VALID,96.055,VALID,0,VALID,20.3869,VALID,218,VALID,0,
2013-06-18, 00:31:04,VALID,915.357,VALID,0,VALID,96.055,VALID,0,VALID,20.4064,VALID,292,VALID,0,
2013-06-18, 00:32:04,VALID,915.197,VALID,0,VALID,96.0322,VALID,0,VALID,20.4064,VALID,22,VALID,0,
2013-06-18, 00:33:04,VALID,915.282,VALID,0,VALID,96.0169,VALID,0,VALID,20.447,VALID,341,VALID,0,
2013-06-18, 00:34:04,VALID,915.264,VALID,0,VALID,95.9788,VALID,0,VALID,20.4033,VALID,29,VALID,0,
2013-06-18, 00:35:04,VALID,915.339,VALID,0,VALID,95.9407,VALID,0,VALID,20.465,VALID,277,VALID,0,
2013-06-18, 00:36:04,VALID,915.356,VALID,0,VALID,95.9331,VALID,0,VALID,20.3823,VALID,235,VALID,0,
2013-06-18, 00:37:04,VALID,915.366,VALID,0,VALID,95.9026,VALID,0,VALID,20.4665,VALID,19,VALID,0,
2013-06-18, 00:38:04,VALID,915.312,VALID,0,VALID,95.8797,VALID,0.107441,VALID,20.4018,VALID,26,VALID,0,
2013-06-18, 00:39:04,VALID,915.347,VALID,0,VALID,95.8645,VALID,0,VALID,20.4439,VALID,241,VALID,0,
2013-06-18, 00:40:04,VALID,915.246,VALID,0,VALID,95.8416,VALID,0,VALID,20.4876,VALID,80,VALID,0,
2013-06-18, 00:41:04,VALID,915.312,VALID,0,VALID,95.834,VALID,0,VALID,20.4439,VALID,182,VALID,0,
2013-06-18, 00:42:04,VALID,915.324,VALID,0,VALID,95.834,VALID,0,VALID,20.4423,VALID,32,VALID,0,
2013-06-18, 00:43:04,VALID,915.273,VALID,0,VALID,95.8187,VALID,0,VALID,20.4439,VALID,31,VALID,0,
2013-06-18, 00:44:04,VALID,915.271,VALID,0,VALID,95.834,VALID,0,VALID,20.465,VALID,154,VALID,0,
2013-06-18, 00:45:04,VALID,915.334,VALID,0,VALID,95.8568,VALID,0,VALID,20.4244,VALID,25,VALID,0,
2013-06-18, 00:46:04,VALID,915.381,VALID,0,VALID,95.834,VALID,0,VALID,20.4681,VALID,101,VALID,0,
2013-06-18, 00:47:04,VALID,915.42,VALID,0,VALID,95.8263,VALID,0,VALID,20.4259,VALID,40,VALID,0,
2013-06-18, 00:48:04,VALID,915.418,VALID,0,VALID,95.8263,VALID,0,VALID,20.4049,VALID,30,VALID,0,
2013-06-18, 00:49:04,VALID,915.498,VALID,0,VALID,95.834,VALID,0,VALID,20.3838,VALID,37,VALID,0,
2013-06-18, 00:50:04,VALID,915.46,VALID,0,VALID,95.8568,VALID,0,VALID,20.4064,VALID,141,VALID,0,
2013-06-18, 00:51:04,VALID,915.422,VALID,0,VALID,95.8568,VALID,0,VALID,20.4275,VALID,46,VALID,0,
2013-06-18, 00:52:04,VALID,915.437,VALID,0,VALID,95.8721,VALID,0,VALID,20.4486,VALID,18,VALID,0,
2013-06-18, 00:53:04,VALID,915.43,VALID,0,VALID,95.8645,VALID,0,VALID,20.3238,VALID,25,VALID,0,
2013-06-18, 00:54:04,VALID,915.389,VALID,0,VALID,95.8721,VALID,0,VALID,20.3854,VALID,9,VALID,0,
2013-06-18, 00:55:04,VALID,915.453,VALID,0,VALID,95.8645,VALID,0,VALID,20.4033,VALID,1,VALID,0,
2013-06-18, 00:56:04,VALID,915.447,VALID,0,VALID,95.8568,VALID,0,VALID,20.3448,VALID,192,VALID,0,
2013-06-18, 00:57:04,VALID,915.385,VALID,0,VALID,95.8492,VALID,0,VALID,20.3869,VALID,73,VALID,0,
2013-06-18, 00:58:04,VALID,915.432,VALID,0,VALID,95.8797,VALID,0,VALID,20.4064,VALID,359,VALID,0,
2013-06-18, 00:59:04,VALID,915.485,VALID,0,VALID,95.8721,VALID,0,VALID,20.3854,VALID,25,VALID,0,
2013-06-18, 01:00:04,VALID,915.448,VALID,0,VALID,95.8645,VALID,0,VALID,20.3448,VALID,28,VALID,0,
2013-06-18, 01:01:04,VALID,915.41,VALID,0,VALID,95.8873,VALID,0,VALID,20.3869,VALID,19,VALID,0,
2013-06-18, 01:02:04,VALID,915.388,VALID,0,VALID,95.9026,VALID,0,VALID,20.3659,VALID,15,VALID,0,
2013-06-18, 01:03:04,VALID,915.438,VALID,0,VALID,95.9331,VALID,0,VALID,20.3854,VALID,30,VALID,0,
2013-06-18, 01:04:04,VALID,915.444,VALID,0,VALID,95.8873,VALID,0,VALID,20.3659,VALID,25,VALID,0,
2013-06-18, 01:05:04,VALID,915.527,VALID,0,VALID,95.9026,VALID,0,VALID,20.3854,VALID,311,VALID,0,
2013-06-18, 01:06:04,VALID,915.507,VALID,0,VALID,95.895,VALID,0,VALID,20.3854,VALID,166,VALID,0,
2013-06-18, 01:07:04,VALID,915.49,VALID,0,VALID,95.8873,VALID,0,VALID,20.4064,VALID,68,VALID,0,
2013-06-18, 01:08:04,VALID,915.449,VALID,0,VALID,95.8568,VALID,0,VALID,20.3854,VALID,200,VALID,0,
2013-06-18, 01:09:04,VALID,915.5,VALID,0,VALID,95.8721,VALID,0,VALID,20.4259,VALID,227,VALID,0,
2013-06-18, 01:10:04,VALID,915.474,VALID,0,VALID,95.8416,VALID,0,VALID,20.4049,VALID,85,VALID,0,
2013-06-18, 01:11:04,VALID,915.477,VALID,0,VALID,95.8416,VALID,0,VALID,20.3854,VALID,85,VALID,0,
2013-06-18, 01:12:04,VALID,915.442,VALID,0,VALID,95.8416,VALID,0,VALID,20.4049,VALID,41,VALID,0,
2013-06-18, 01:13:04,VALID,915.509,VALID,0,VALID,95.8263,VALID,0,VALID,20.4259,VALID,317,VALID,0,
2013-06-18, 01:14:04,VALID,915.505,VALID,0,VALID,95.8416,VALID,0,VALID,20.4049,VALID,222,VALID,0,
2013-06-18, 01:15:04,VALID,915.527,VALID,0,VALID,95.8568,VALID,0,VALID,20.4244,VALID,222,VALID,0,
2013-06-18, 01:16:04,VALID,915.478,VALID,0,VALID,95.8416,VALID,0,VALID,20.4049,VALID,296,VALID,0,
2013-06-18, 01:17:04,VALID,915.53,VALID,0,VALID,95.8416,VALID,0,VALID,20.4454,VALID,208,VALID,0,
2013-06-18, 01:18:04,VALID,915.51,VALID,0,VALID,95.7958,VALID,0,VALID,20.4033,VALID,226,VALID,0,
2013-06-18, 01:19:04,VALID,915.543,VALID,0,VALID,95.773,VALID,0,VALID,20.4244,VALID,228,VALID,0,
2013-06-18, 01:20:04,VALID,915.483,VALID,0,VALID,95.773,VALID,0,VALID,20.4439,VALID,25,VALID,0,
2013-06-18, 01:21:04,VALID,915.437,VALID,0,VALID,95.7501,VALID,0,VALID,20.4634,VALID,202,VALID,0,
2013-06-18, 01:22:04,VALID,915.463,VALID,0,VALID,95.7425,VALID,0,VALID,20.4634,VALID,185,VALID,0,
2013-06-18, 01:23:04,VALID,915.449,VALID,0,VALID,95.7349,VALID,0,VALID,20.504,VALID,100,VALID,0,
2013-06-18, 01:24:04,VALID,915.403,VALID,0,VALID,95.712,VALID,0,VALID,20.504,VALID,244,VALID,0,
2013-06-18, 01:25:04,VALID,915.432,VALID,0,VALID,95.7044,VALID,0,VALID,20.504,VALID,199,VALID,0,
2013-06-18, 01:26:04,VALID,915.363,VALID,0,VALID,95.7349,VALID,0,VALID,20.504,VALID,22,VALID,0,
2013-06-18, 01:27:04,VALID,915.397,VALID,0,VALID,95.7349,VALID,0,VALID,20.5024,VALID,22,VALID,0,
2013-06-18, 01:28:04,VALID,915.314,VALID,0,VALID,95.7501,VALID,0,VALID,20.504,VALID,2,VALID,0,
2013-06-18, 01:29:04,VALID,915.308,VALID,0,VALID,95.7501,VALID,0,VALID,20.4845,VALID,126,VALID,0,
2013-06-18, 01:30:04,VALID,915.232,VALID,0,VALID,95.773,VALID,0,VALID,20.4634,VALID,118,VALID,0,
2013-06-18, 01:31:04,VALID,915.243,VALID,0,VALID,95.7272,VALID,0,VALID,20.4454,VALID,1,VALID,0,
2013-06-18, 01:32:04,VALID,915.246,VALID,0,VALID,95.6281,VALID,0,VALID,20.4259,VALID,324,VALID,0,
2013-06-18, 01:33:04,VALID,915.196,VALID,0,VALID,95.5748,VALID,0,VALID,20.4259,VALID,15,VALID,0,
2013-06-18, 01:34:04,VALID,915.199,VALID,0,VALID,95.5062,VALID,0,VALID,20.4454,VALID,323,VALID,0,
2013-06-18, 01:35:04,VALID,915.203,VALID,0,VALID,95.4528,VALID,0,VALID,20.4244,VALID,167,VALID,0,
2013-06-18, 01:36:04,VALID,915.188,VALID,0,VALID,95.3689,VALID,0,VALID,20.4244,VALID,271,VALID,0,
2013-06-18, 01:37:04,VALID,915.234,VALID,0,VALID,95.1174,VALID,0,VALID,20.4259,VALID,7,VALID,0,
2013-06-18, 01:38:04,VALID,915.171,VALID,0,VALID,94.9649,VALID,0,VALID,20.3854,VALID,15,VALID,0,
2013-06-18, 01:39:04,VALID,915.074,VALID,0,VALID,94.8734,VALID,0,VALID,20.3854,VALID,36,VALID,0,
2013-06-18, 01:40:04,VALID,915.073,VALID,0,VALID,94.7362,VALID,0,VALID,20.3869,VALID,337,VALID,0,
2013-06-18, 01:41:04,VALID,915.047,VALID,0,VALID,94.66,VALID,0,VALID,20.4064,VALID,25,VALID,0,
2013-06-18, 01:42:04,VALID,915.082,VALID,0,VALID,94.5685,VALID,0,VALID,20.3854,VALID,2,VALID,0,
2013-06-18, 01:43:04,VALID,915.04,VALID,0,VALID,94.4465,VALID,0,VALID,20.3869,VALID,5,VALID,0,
2013-06-18, 01:44:04,VALID,915.085,VALID,0,VALID,94.3017,VALID,0,VALID,20.3869,VALID,24,VALID,0,
2013-06-18, 01:45:04,VALID,915.028,VALID,0,VALID,94.1568,VALID,0,VALID,20.3659,VALID,88,VALID,0,
2013-06-18, 01:46:04,VALID,915.04,VALID,0,VALID,94.1721,VALID,0,VALID,20.3854,VALID,248,VALID,0,
2013-06-18, 01:47:04,VALID,914.964,VALID,0,VALID,94.1416,VALID,0,VALID,20.4064,VALID,255,VALID,0,
2013-06-18, 01:48:04,VALID,914.919,VALID,0,VALID,93.9434,VALID,0,VALID,20.4049,VALID,251,VALID,0,
2013-06-18, 01:49:04,VALID,914.939,VALID,0,VALID,93.8061,VALID,0,VALID,20.4439,VALID,242,VALID,0,
2013-06-18, 01:50:04,VALID,914.964,VALID,0,VALID,93.707,VALID,0,VALID,20.4454,VALID,226,VALID,0,
2013-06-18, 01:51:04,VALID,914.92,VALID,0,VALID,93.7299,VALID,0,VALID,20.4454,VALID,273,VALID,0,
2013-06-18, 01:52:04,VALID,914.892,VALID,0,VALID,93.646,VALID,0,VALID,20.4049,VALID,265,VALID,0,
2013-06-18, 01:53:04,VALID,914.896,VALID,0,VALID,93.5241,VALID,0,VALID,20.4064,VALID,253,VALID,0,
2013-06-18, 01:54:04,VALID,914.926,VALID,0,VALID,93.4707,VALID,0.107441,VALID,20.4259,VALID,255,VALID,0,
2013-06-18, 01:55:04,VALID,914.891,VALID,0,VALID,93.3945,VALID,0,VALID,20.4244,VALID,241,VALID,0,
2013-06-18, 01:56:04,VALID,914.82,VALID,0,VALID,93.3868,VALID,0,VALID,20.4439,VALID,172,VALID,0,
2013-06-18, 01:57:04,VALID,914.86,VALID,0,VALID,93.3564,VALID,0,VALID,20.4244,VALID,277,VALID,0,
2013-06-18, 01:58:04,VALID,914.844,VALID,0,VALID,93.3259,VALID,0,VALID,20.4259,VALID,267,VALID,0,
2013-06-18, 01:59:04,VALID,914.847,VALID,0,VALID,93.3411,VALID,0,VALID,20.4244,VALID,360,VALID,0,
2013-06-18, 02:00:04,VALID,914.783,VALID,0,VALID,93.0057,VALID,0,VALID,20.4049,VALID,220,VALID,0,
2013-06-18, 02:01:04,VALID,914.738,VALID,0,VALID,92.7389,VALID,0,VALID,20.4259,VALID,26,VALID,0,
2013-06-18, 02:02:04,VALID,914.736,VALID,0,VALID,92.7084,VALID,0,VALID,20.465,VALID,72,VALID,0,
2013-06-18, 02:03:04,VALID,914.759,VALID,0,VALID,92.7465,VALID,0,VALID,20.4454,VALID,26,VALID,0,
2013-06-18, 02:04:04,VALID,914.751,VALID,0,VALID,92.8532,VALID,0,VALID,20.4259,VALID,223,VALID,0,
2013-06-18, 02:05:04,VALID,914.771,VALID,0,VALID,92.838,VALID,0,VALID,20.4064,VALID,284,VALID,0,
2013-06-18, 02:06:04,VALID,914.659,VALID,0,VALID,92.4873,VALID,0,VALID,20.4064,VALID,338,VALID,0,
2013-06-18, 02:07:04,VALID,914.812,VALID,0,VALID,92.2357,VALID,0,VALID,20.4439,VALID,315,VALID,0,
2013-06-18, 02:08:04,VALID,914.667,VALID,0,VALID,91.9079,VALID,0,VALID,20.4454,VALID,256,VALID,0,
2013-06-18, 02:09:04,VALID,914.697,VALID,0,VALID,91.8164,VALID,0,VALID,20.4454,VALID,23,VALID,0,
2013-06-18, 02:10:04,VALID,914.796,VALID,0,VALID,91.6182,VALID,0,VALID,20.4454,VALID,339,VALID,0,
2013-06-18, 02:11:04,VALID,914.734,VALID,0,VALID,91.6563,VALID,0,VALID,20.465,VALID,215,VALID,0,
2013-06-18, 02:12:04,VALID,914.702,VALID,0,VALID,91.7859,VALID,0,VALID,20.4244,VALID,21,VALID,0,
2013-06-18, 02:13:04,VALID,914.704,VALID,0,VALID,92.0223,VALID,0,VALID,20.4049,VALID,12,VALID,0,
2013-06-18, 02:14:04,VALID,914.672,VALID,0,VALID,92.2586,VALID,0,VALID,20.3869,VALID,33,VALID,0,
2013-06-18, 02:15:04,VALID,914.69,VALID,0,VALID,92.4797,VALID,0,VALID,20.3464,VALID,311,VALID,0,
2013-06-18, 02:16:04,VALID,914.683,VALID,0,VALID,92.655,VALID,0,VALID,20.3674,VALID,329,VALID,0,
2013-06-18, 02:17:04,VALID,914.648,VALID,0,VALID,92.8456,VALID,0,VALID,20.3479,VALID,118,VALID,0,
2013-06-18, 02:18:04,VALID,914.625,VALID,0,VALID,93.0362,VALID,0,VALID,20.3284,VALID,40,VALID,0,
2013-06-18, 02:19:04,VALID,914.642,VALID,0,VALID,92.9904,VALID,0,VALID,20.3089,VALID,26,VALID,0,
2013-06-18, 02:20:04,VALID,914.684,VALID,0,VALID,92.8837,VALID,0,VALID,20.3479,VALID,10,VALID,0,
2013-06-18, 02:21:04,VALID,914.68,VALID,0,VALID,92.838,VALID,0,VALID,20.3869,VALID,16,VALID,0,
2013-06-18, 02:22:04,VALID,914.667,VALID,0,VALID,92.9904,VALID,0,VALID,20.3674,VALID,34,VALID,0,
2013-06-18, 02:23:04,VALID,914.669,VALID,0,VALID,93.12,VALID,0,VALID,20.3464,VALID,26,VALID,0,
2013-06-18, 02:24:04,VALID,914.657,VALID,0,VALID,93.2725,VALID,0,VALID,20.3479,VALID,23,VALID,0,
2013-06-18, 02:25:04,VALID,914.609,VALID,0,VALID,93.3716,VALID,0,VALID,20.3284,VALID,14,VALID,0,
2013-06-18, 02:26:04,VALID,914.583,VALID,0,VALID,93.5012,VALID,0,VALID,20.3284,VALID,31,VALID,0,
2013-06-18, 02:27:04,VALID,914.587,VALID,0,VALID,93.6308,VALID,0.107441,VALID,20.3089,VALID,12,VALID,0,
2013-06-18, 02:28:04,VALID,914.58,VALID,0,VALID,93.7833,VALID,0,VALID,20.2684,VALID,23,VALID,0,
2013-06-18, 02:29:04,VALID,914.584,VALID,0,VALID,93.9052,VALID,0,VALID,20.2894,VALID,19,VALID,0,
2013-06-18, 02:30:04,VALID,914.55,VALID,0,VALID,93.9586,VALID,0,VALID,20.2894,VALID,26,VALID,0,
2013-06-18, 02:31:04,VALID,914.564,VALID,0,VALID,93.9967,VALID,0,VALID,20.2894,VALID,16,VALID,0,
2013-06-18, 02:32:04,VALID,914.534,VALID,0,VALID,94.0501,VALID,0,VALID,20.2699,VALID,41,VALID,0,
2013-06-18, 02:33:04,VALID,914.509,VALID,0,VALID,94.073,VALID,0,VALID,20.2699,VALID,16,VALID,0,
2013-06-18, 02:34:04,VALID,914.494,VALID,0,VALID,94.1187,VALID,0,VALID,20.2699,VALID,219,VALID,0,
2013-06-18, 02:35:04,VALID,914.531,VALID,0,VALID,94.1721,VALID,0,VALID,20.2699,VALID,351,VALID,0,
2013-06-18, 02:36:04,VALID,914.542,VALID,0,VALID,93.9815,VALID,0,VALID,20.2278,VALID,28,VALID,0,
2013-06-18, 02:37:04,VALID,914.545,VALID,0,VALID,93.8976,VALID,0,VALID,20.3089,VALID,26,VALID,0,
2013-06-18, 02:38:04,VALID,914.471,VALID,0,VALID,93.8061,VALID,0,VALID,20.2894,VALID,12,VALID,0,
2013-06-18, 02:39:04,VALID,914.45,VALID,0,VALID,93.8824,VALID,0,VALID,20.2684,VALID,10,VALID,0,
2013-06-18, 02:40:04,VALID,914.514,VALID,0,VALID,93.9891,VALID,0,VALID,20.2504,VALID,16,VALID,0,
2013-06-18, 02:41:04,VALID,914.486,VALID,0,VALID,94.0882,VALID,0,VALID,20.2293,VALID,33,VALID,0,
2013-06-18, 02:42:04,VALID,914.402,VALID,0,VALID,94.2026,VALID,0,VALID,20.2114,VALID,36,VALID,0,
2013-06-18, 02:43:04,VALID,914.414,VALID,0,VALID,94.2178,VALID,0,VALID,20.1903,VALID,310,VALID,0,
2013-06-18, 02:44:04,VALID,914.326,VALID,0,VALID,94.1111,VALID,0,VALID,20.1903,VALID,29,VALID,0,
2013-06-18, 02:45:04,VALID,914.418,VALID,0,VALID,93.829,VALID,0,VALID,20.2504,VALID,272,VALID,0,
2013-06-18, 02:46:04,VALID,914.382,VALID,0,VALID,93.5927,VALID,0,VALID,20.2894,VALID,207,VALID,0,
2013-06-18, 02:47:04,VALID,914.383,VALID,0,VALID,93.4478,VALID,0,VALID,20.2879,VALID,142,VALID,0,
2013-06-18, 02:48:04,VALID,914.333,VALID,0,VALID,93.364,VALID,0,VALID,20.2879,VALID,66,VALID,0,
2013-06-18, 02:49:04,VALID,914.266,VALID,0,VALID,93.4326,VALID,0,VALID,20.3089,VALID,66,VALID,0,
2013-06-18, 02:50:04,VALID,914.317,VALID,0,VALID,93.5546,VALID,0,VALID,20.2684,VALID,262,VALID,0,
2013-06-18, 02:51:04,VALID,914.357,VALID,0,VALID,93.6765,VALID,0,VALID,20.3089,VALID,33,VALID,0,
2013-06-18, 02:52:04,VALID,914.339,VALID,0,VALID,93.7909,VALID,0,VALID,20.3089,VALID,26,VALID,0,
2013-06-18, 02:53:04,VALID,914.248,VALID,0,VALID,93.8671,VALID,0,VALID,20.2684,VALID,225,VALID,0,
2013-06-18, 02:54:04,VALID,914.25,VALID,0,VALID,94.012,VALID,0,VALID,20.2894,VALID,219,VALID,0,
2013-06-18, 02:55:04,VALID,914.2,VALID,0,VALID,94.1263,VALID,0,VALID,20.2684,VALID,56,VALID,0,
2013-06-18, 02:56:04,VALID,914.01,VALID,0,VALID,94.1873,VALID,0,VALID,20.2489,VALID,315,VALID,0,
2013-06-18, 02:57:04,VALID,914.153,VALID,0,VALID,94.2864,VALID,0,VALID,20.2684,VALID,63,VALID,0,
2013-06-18, 02:58:04,VALID,914.119,VALID,0,VALID,94.3245,VALID,0,VALID,20.2489,VALID,19,VALID,0,
2013-06-18, 02:59:04,VALID,914.166,VALID,0,VALID,94.3474,VALID,0,VALID,20.2489,VALID,60,VALID,0,
2013-06-18, 03:00:04,VALID,914.112,VALID,0,VALID,94.4008,VALID,0,VALID,20.2489,VALID,17,VALID,0,
2013-06-18, 03:01:04,VALID,914.054,VALID,0,VALID,94.4389,VALID,0,VALID,20.2489,VALID,14,VALID,0,
2013-06-18, 03:02:04,VALID,914.1,VALID,0,VALID,94.4694,VALID,0,VALID,20.2489,VALID,86,VALID,0,
2013-06-18, 03:03:04,VALID,914.085,VALID,0,VALID,94.4922,VALID,0,VALID,20.2894,VALID,46,VALID,0,
2013-06-18, 03:04:04,VALID,914.158,VALID,0,VALID,94.5075,VALID,0,VALID,20.2684,VALID,338,VALID,0,
2013-06-18, 03:05:04,VALID,914.101,VALID,0,VALID,94.538,VALID,0,VALID,20.2894,VALID,87,VALID,0,
2013-06-18, 03:06:04,VALID,914.171,VALID,0,VALID,94.5532,VALID,0,VALID,20.3089,VALID,41,VALID,0,
2013-06-18, 03:07:04,VALID,914.122,VALID,0,VALID,94.5532,VALID,0,VALID,20.2879,VALID,83,VALID,0,
2013-06-18, 03:08:04,VALID,914.124,VALID,0,VALID,94.6142,VALID,0,VALID,20.2879,VALID,40,VALID,0,
2013-06-18, 03:09:04,VALID,914.099,VALID,0,VALID,94.6676,VALID,0,VALID,20.2684,VALID,308,VALID,0,
2013-06-18, 03:10:04,VALID,914.161,VALID,0,VALID,94.7591,VALID,0,VALID,20.2699,VALID,9,VALID,0,
2013-06-18, 03:11:04,VALID,914.181,VALID,0,VALID,94.82,VALID,0,VALID,20.2489,VALID,303,VALID,0,
2013-06-18, 03:12:04,VALID,914.174,VALID,0,VALID,94.9039,VALID,0,VALID,20.2489,VALID,352,VALID,0,
2013-06-18, 03:13:04,VALID,914.108,VALID,0,VALID,94.9725,VALID,0,VALID,20.2699,VALID,82,VALID,0,
2013-06-18, 03:14:04,VALID,914.074,VALID,0,VALID,94.9954,VALID,0,VALID,20.2699,VALID,294,VALID,0,
2013-06-18, 03:15:04,VALID,914.129,VALID,0,VALID,95.0183,VALID,0,VALID,20.2684,VALID,16,VALID,0,
2013-06-18, 03:16:04,VALID,914.116,VALID,0,VALID,95.003,VALID,0,VALID,20.2879,VALID,231,VALID,0,
2013-06-18, 03:17:04,VALID,914.089,VALID,0,VALID,95.0106,VALID,0,VALID,20.2684,VALID,27,VALID,0,
2013-06-18, 03:18:04,VALID,914.062,VALID,0,VALID,95.0106,VALID,0,VALID,20.2894,VALID,183,VALID,0,
2013-06-18, 03:19:04,VALID,914.115,VALID,0,VALID,94.9573,VALID,0,VALID,20.2879,VALID,116,VALID,0,
2013-06-18, 03:20:04,VALID,914.032,VALID,0,VALID,94.9268,VALID,0,VALID,20.3089,VALID,106,VALID,0,
2013-06-18, 03:21:04,VALID,914.038,VALID,0,VALID,94.9115,VALID,0,VALID,20.3089,VALID,94,VALID,0,
2013-06-18, 03:22:04,VALID,914.014,VALID,0,VALID,94.8963,VALID,0,VALID,20.3089,VALID,94,VALID,0,
2013-06-18, 03:23:04,VALID,913.988,VALID,0,VALID,94.9192,VALID,0,VALID,20.2879,VALID,115,VALID,0,
2013-06-18, 03:24:04,VALID,914.024,VALID,0,VALID,94.9268,VALID,0,VALID,20.3089,VALID,336,VALID,0,
2013-06-18, 03:25:04,VALID,913.965,VALID,0,VALID,94.8353,VALID,0,VALID,20.2894,VALID,285,VALID,0,
2013-06-18, 03:26:04,VALID,913.976,VALID,0,VALID,94.8887,VALID,0,VALID,20.3089,VALID,198,VALID,0,
2013-06-18, 03:27:04,VALID,913.921,VALID,0,VALID,94.9039,VALID,0,VALID,20.3269,VALID,23,VALID,0,
2013-06-18, 03:28:04,VALID,913.901,VALID,0,VALID,94.9039,VALID,0,VALID,20.3269,VALID,133,VALID,0,
2013-06-18, 03:29:04,VALID,913.903,VALID,0,VALID,94.9115,VALID,0,VALID,20.3074,VALID,81,VALID,0,
2013-06-18, 03:30:04,VALID,913.904,VALID,0,VALID,94.8277,VALID,0,VALID,20.3074,VALID,198,VALID,0,
2013-06-18, 03:31:04,VALID,913.869,VALID,0,VALID,94.5761,VALID,0,VALID,20.3479,VALID,7,VALID,0,
2013-06-18, 03:32:04,VALID,913.885,VALID,0,VALID,94.4008,VALID,0,VALID,20.4064,VALID,198,VALID,0,
2013-06-18, 03:33:04,VALID,913.906,VALID,0,VALID,94.0958,VALID,0,VALID,20.3854,VALID,263,VALID,0,
2013-06-18, 03:34:04,VALID,913.87,VALID,0,VALID,93.9129,VALID,0,VALID,20.4244,VALID,308,VALID,0,
2013-06-18, 03:35:04,VALID,913.866,VALID,0,VALID,93.5469,VALID,0,VALID,20.4244,VALID,199,VALID,0,
2013-06-18, 03:36:04,VALID,913.814,VALID,0,VALID,93.3564,VALID,0,VALID,20.4845,VALID,22,VALID,0,
2013-06-18, 03:37:04,VALID,913.913,VALID,0,VALID,93.1963,VALID,0,VALID,20.4439,VALID,194,VALID,0,
2013-06-18, 03:38:04,VALID,913.906,VALID,0,VALID,93.1124,VALID,0,VALID,20.4439,VALID,180,VALID,0,
2013-06-18, 03:39:04,VALID,913.847,VALID,0,VALID,93.1505,VALID,0,VALID,20.465,VALID,46,VALID,0,
2013-06-18, 03:40:04,VALID,913.839,VALID,0,VALID,93.1886,VALID,0,VALID,20.4049,VALID,262,VALID,0,
2013-06-18, 03:41:04,VALID,913.79,VALID,0,VALID,93.2801,VALID,0,VALID,20.4064,VALID,25,VALID,0,
2013-06-18, 03:42:04,VALID,913.805,VALID,0,VALID,93.2496,VALID,0,VALID,20.3869,VALID,285,VALID,0,
2013-06-18, 03:43:04,VALID,913.84,VALID,0,VALID,93.3106,VALID,0,VALID,20.3854,VALID,131,VALID,0,
2013-06-18, 03:44:04,VALID,913.861,VALID,0,VALID,93.3716,VALID,0,VALID,20.4064,VALID,157,VALID,0,
2013-06-18, 03:45:04,VALID,913.849,VALID,0,VALID,93.4097,VALID,0,VALID,20.3869,VALID,174,VALID,0,
2013-06-18, 03:46:04,VALID,913.828,VALID,0,VALID,93.4173,VALID,0,VALID,20.3869,VALID,102,VALID,0,
2013-06-18, 03:47:04,VALID,913.93,VALID,0,VALID,93.4631,VALID,0,VALID,20.3659,VALID,148,VALID,0,
2013-06-18, 03:48:04,VALID,913.882,VALID,0,VALID,93.5164,VALID,0,VALID,20.3869,VALID,125,VALID,0,
2013-06-18, 03:49:04,VALID,913.845,VALID,0,VALID,93.5698,VALID,0,VALID,20.3869,VALID,41,VALID,0,
2013-06-18, 03:50:04,VALID,913.893,VALID,0,VALID,93.6003,VALID,0,VALID,20.3269,VALID,51,VALID,0,
2013-06-18, 03:51:04,VALID,913.893,VALID,0,VALID,93.6384,VALID,0,VALID,20.3269,VALID,22,VALID,0,
2013-06-18, 03:52:04,VALID,913.86,VALID,0,VALID,93.2877,VALID,0,VALID,20.3089,VALID,245,VALID,0,
2013-06-18, 03:53:04,VALID,913.842,VALID,0,VALID,93.0819,VALID,0,VALID,20.3464,VALID,56,VALID,0,
2013-06-18, 03:54:04,VALID,913.772,VALID,0,VALID,93.0057,VALID,0,VALID,20.3869,VALID,329,VALID,0,
2013-06-18, 03:55:04,VALID,913.82,VALID,0,VALID,93.0133,VALID,0,VALID,20.3659,VALID,16,VALID,0,
2013-06-18, 03:56:04,VALID,913.882,VALID,0,VALID,93.1276,VALID,0,VALID,20.3464,VALID,25,VALID,0,
2013-06-18, 03:57:04,VALID,913.836,VALID,0,VALID,93.303,VALID,0,VALID,20.3674,VALID,169,VALID,0,
2013-06-18, 03:58:04,VALID,913.893,VALID,0,VALID,93.4859,VALID,0,VALID,20.3269,VALID,124,VALID,0,
2013-06-18, 03:59:04,VALID,913.936,VALID,0,VALID,93.646,VALID,0,VALID,20.3074,VALID,87,VALID,0,
2013-06-18, 04:00:04,VALID,913.863,VALID,0,VALID,93.4707,VALID,0,VALID,20.2699,VALID,272,VALID,0,
2013-06-18, 04:01:04,VALID,913.922,VALID,0,VALID,93.5546,VALID,0,VALID,20.3284,VALID,82,VALID,0,